Hourly Data Report for October 31, 2013

All times are specified in Local Standard Time (LST). Add 1 hour to adjust for Daylight Saving Time where and when it is observed.

KAMLOOPS A
BRITISH COLUMBIA

50°42'09.000" N
120°26'55.000" W
345.30 m
1163781
71887
YKA

Download Data

Hourly Data (October 2013)
Hourly Data Report for October 31, 2013
Temp Definition
°C
Dew Point Temp Definition
°C
Rel Hum Definition
%
Wind Dir Definition
10's deg

Wind Spd Definition
km/h
Visibility Definition
km
Stn Press Definition
kPa
Hmdx Definition


Wind Chill Definition


Weather Definition


TIME
00:00 Legend Double Dagger 3.6 -0.2 76 32 4 64.4 97.25     LegendNANA
01:00 Legend Double Dagger 1.6 -1.8 78 30 5 64.4 97.30     Mainly Clear
02:00 Legend Double Dagger 0.6 -2.0 83 31 3 64.4 97.34     LegendNANA
03:00 Legend Double Dagger 2.5 0.2 85 13 6 64.4 97.35     LegendNANA
04:00 Legend Double Dagger 2.4 0.1 85 9 1 64.4 97.37     Mostly Cloudy
05:00 Legend Double Dagger 0.9 -1.2 86 4 2 64.4 97.41     LegendNANA
06:00 Legend Double Dagger 0.0 -1.5 90 9 7 64.4 97.46   -2 LegendNANA
07:00 Legend Double Dagger -0.2 -1.5 91 9 4 48.3 97.50   -1 Mainly Clear
08:00 Legend Double Dagger 0.8 -1.0 88 3 4 48.3 97.58     LegendNANA
09:00 Legend Double Dagger 2.8 -0.1 81 10 3 48.3 97.62     LegendNANA
10:00 Legend Double Dagger 4.5 0.3 74 5 3 48.3 97.66     Mostly Cloudy
11:00 Legend Double Dagger 5.7 0.9 71 19 4 48.3 97.67     LegendNANA
12:00 Legend Double Dagger 6.1 0.9 69 22 8 48.3 97.65     LegendNANA
13:00 Legend Double Dagger 7.9 1.3 63 13 8 64.4 97.61     Mainly Clear
14:00 Legend Double Dagger 9.3 1.5 58 12 5 64.4 97.55     LegendNANA
15:00 Legend Double Dagger 9.1 2.0 61 23 3 64.4 97.54     LegendNANA
16:00 Legend Double Dagger 7.7 2.2 68 26 6 64.4 97.58     Mainly Clear
17:00 Legend Double Dagger 6.7 2.2 73 19 5 64.4 97.58     LegendNANA
18:00 Legend Double Dagger 4.7 1.2 78 35 6 64.4 97.66     LegendNANA
19:00 Legend Double Dagger 4.1 0.6 78 34 4 64.4 97.71     Mainly Clear
20:00 Legend Double Dagger 4.4 1.6 82 34 4 64.4 97.78     LegendNANA
21:00 Legend Double Dagger 4.1 1.7 84 18 4 64.4 97.88     LegendNANA
22:00 Legend Double Dagger 2.3 -1.1 78 28 4 64.4 97.95     Clear
23:00 Legend Double Dagger 1.3 -0.8 86 36 3 64.4 97.98     LegendNANA

Notes on Data Quality.

Legend

  • E = Estimated
  • M = Missing
  • NA = Not Available
  • ‡ = Partner data that is not subject to review by the National Climate Archives
Date modified: